AMOS-4

Last updated on Thu Dec 18 2025 00:02:49 GMT+0000 (Coordinated Universal Time)

1 39237U 13045A 25351.56812234 .00000032 00000+0 00000+0 0 9997 2 39237 0.0252 85.7906 0002873 202.5088 67.6655 1.00272274 45138
UTC large
Height (km)
Speed (km/s)
/
Latitude / Longitude
Inclination (degrees)
Orbital Period (minutes)
Azimuth
Elevation
Range (km)
Doppler Factor

Next 0 passes for location: London (51.5072 / 0.1276)

Sorry there are no passes over London.